Regional Weather Roundup
Issued by NWS

Home | Current Version | Previous Version | Graphics & Text | Print | Product List | Glossary On
Versions: 1 2 3 4 5 6 7 8 9 10 11 12 13 14 15 16 17 18 19 20 21 22 23 24 25 26 27 28 29 30 31 32 33 34 35 36 37 38 39 40 41 42 43 44 45 46 47 48 49 50
710
ASUS43 KMPX 272201
RWRMN
WEATHER ROUNDUP FOR MINNESOTA
NATIONAL WEATHER SERVICE TWIN CITIES/CHANHASSEN MN
500 PM CDT MON MAR 27 2017


NOTE: "FAIR" INDICATES FEW OR NO CLOUDS BELOW 12,000 FEET WITH NO
SIGNIFICANT WEATHER AND/OR OBSTRUCTIONS TO VISIBILITY. N/A MEANS
CURRENT SKY AND/OR WEATHER CONDITIONS ARE NOT AVAILABLE.

MNZ060>063-068>070-272300-
   Twin Cities Metro

CITY           SKY/WX    TMP DP  RH WIND       PRES   REMARKS
TWIN CITIES    PTSUNNY   58  29  33 NE9       29.94S
ST PAUL        CLOUDY    56  36  47 SE7       29.95R
CRYSTAL        CLOUDY    57  30  35 NE5       29.93S
BLAINE         PTSUNNY   59  34  38 N6        29.95R
LAKEVILLE      CLOUDY    50  39  66 E6        29.95S
EDEN PRAIRIE   PTSUNNY   59  30  33 CALM      29.93S
SOUTH ST PAUL  CLOUDY    54  36  50 S6        29.95S
LAKE ELMO      CLOUDY    54  37  54 E6        29.96R
$$
MNZ001>005-007-008-013>017-022>024-027-028-272300-
   Northwest Minnesota

CITY           SKY/WX    TMP DP  RH WIND       PRES   REMARKS
BEMIDJI        SUNNY     56  29  35 SE8       29.96R
HALLOCK        MOSUNNY   39  37  93 NW5       30.02R
ROSEAU         MOSUNNY   52  41  66 NW6       29.99S
WARROAD        SUNNY     45  36  70 NE6       30.00R
THIEF RVR FALL   N/A    N/A N/A N/A MISG        N/A
CROOKSTON      CLOUDY    43  41  93 N9        30.02R
FOSSTON        SUNNY     59  34  38 NW6       29.97S
DETROIT LAKES  SUNNY     55  34  44 CALM      29.97R
MOORHEAD       SUNNY     55  39  54 CALM      29.97S
PARK RAPIDS    SUNNY     59  26  28 N5        29.94S
MAHNOMEN       FAIR      55  39  55 W6        29.96S
$$
MNZ006-009>011-018-025>026-272300-
   North Central Minnesota

CITY           SKY/WX    TMP DP  RH WIND       PRES   REMARKS
BAUDETTE       SUNNY     52  33  48 NW10      29.98R
FLAG ISLAND    PTSUNNY   45  32  61 CALM      29.99F
INTL FALLS     SUNNY     54  26  34 N6        29.97S
WASKISH        MOSUNNY   48  36  61 W8        29.97R
BIG FORK       SUNNY     57  28  33 CALM      29.96S
LONGVILLE      SUNNY     55  30  38 N3        29.96R
GRAND RAPIDS   SUNNY     55  31  39 W5        29.98R
CRANE LAKE     SUNNY     54  25  32 NW3       29.98S
ORR            SUNNY     55  23  28 CALM      29.94S
COOK           SUNNY     54  27  35 CALM      29.96S
WALKER         FAIR      52  33  47 E6        29.96S
$$
MNZ012-019>021-037-272300-
   Northeast Minnesota

CITY           SKY/WX    TMP DP  RH WIND       PRES   REMARKS
DULUTH         MOSUNNY   49  36  61 E6        29.96R
ELY            SUNNY     52  21  30 NE3       29.96S
HIBBING        SUNNY     53  29  39 CALM      29.95S
EVELETH        SUNNY     55  20  25 NE7       29.96S
DULUTH HARBOR  SUNNY     41  36  81 CALM      29.99S
TWO HARBORS    SUNNY     50  37  62 E3        29.96R
SILVER BAY     SUNNY     48  36  61 CALM      29.96S
GRAND MARAIS     N/A     39  35  86 SW6       29.99S
G MARAIS ARPRT SUNNY     45  30  57 SE3       29.97R
$$
MNZ029>031-032-039>041-046>048-054>057-064-272300-
   West Central Minnesota

CITY           SKY/WX    TMP DP  RH WIND       PRES   REMARKS
FERGUS FALLS   SUNNY     57  39  51 N6        29.97F
WHEATON        SUNNY     57  34  41 CALM      29.96S
MORRIS         SUNNY     59  36  41 E7        29.94S
ALEXANDRIA     MOSUNNY   56  35  45 W3        29.95F
ELBOW LAKE     FAIR      56  36  46 NE3       29.95F
WADENA         MOSUNNY   57  36  44 SW7       29.95S
GLENWOOD       SUNNY     55  36  47 CALM      29.96S
APPLETON       SUNNY     57  36  44 SE3       29.95S
BENSON         SUNNY     61  32  33 W5        29.96F
ORTONVILLE     SUNNY     57  34  41 SE5       29.95S
MADISON        SUNNY     57  37  47 CALM      29.95S
WILLMAR        FAIR      57  32  38 E6        29.96F
$$
MNZ033>034-036-042>043-049>051-058-059-272300-
   Central Minnesota

CITY           SKY/WX    TMP DP  RH WIND       PRES   REMARKS
ST CLOUD       CLOUDY    56  37  49 NE8       29.95F
SAUK CENTRE    MOCLDY    54  35  49 CALM      29.96S
PAYNESVILLE      N/A     55  33  44 NE5       29.96S
AITKIN         SUNNY     57  30  35 CALM      29.94S
PINE RIVER     SUNNY     57  34  41 N5        29.98S
BRAINERD       CLOUDY    55  33  43 CALM      29.96S
STAPLES        PTSUNNY   57  34  41 CALM      29.95S
LONG PRAIRIE   CLOUDY    54  34  47 E3        29.96S
LITTLE FALLS   CLOUDY    52  34  50 E3        29.97S
LITCHFIELD     PTSUNNY   57  36  44 N5        29.96S
BUFFALO        CLOUDY    56  32  40 NE6       29.96S
MAPLE LAKE     PTSUNNY   56  35  44 NE7       29.96F
HUTCHINSON     MOSUNNY   58  38  48 E7        29.96F
$$
MNZ037-044-045-052-053-272300-
   East Central Minnesota

CITY           SKY/WX    TMP DP  RH WIND       PRES   REMARKS
PRINCETON      PTSUNNY   57  36  44 N6        29.96S
MORA           MOSUNNY   54  32  43 CALM      29.97S
CAMBRIDGE      SUNNY     57  39  51 N6        29.94S
RUSH CITY      SUNNY     57  36  45 CALM      29.95S
MOOSE LAKE     SUNNY     54  32  43 CALM      29.95S
CLOQUET        SUNNY     52  30  43 CALM      29.96R
MCGREGOR       SUNNY     55  32  41 E3        29.95S
$$
MNZ071>073-080-081-089-090-097-098-272300-
   Southwest Minnesota

CITY           SKY/WX    TMP DP  RH WIND       PRES   REMARKS
MONTEVIDEO     SUNNY     61  36  39 CALM      29.96F
GRANITE FALLS  SUNNY     60  38  45 N6        29.95F
CANBY          SUNNY     58  37  45 CALM      29.95S HAZE
MARSHALL       SUNNY     55  37  50 E6        29.95S
REDWOOD FALLS  SUNNY     57  34  41 E7        29.94S
OLIVIA         SUNNY     57  34  41 N5        29.94S
PIPESTONE      SUNNY     57  30  35 CALM      29.92F
WINDOM         SUNNY     55  39  54 N5        29.95F
WORTHINGTON    PTSUNNY   50  39  66 VRB7      29.95F
JACKSON        MOSUNNY   50  37  62 NE6       29.96S
TRACY          SUNNY     57  40  52 E5        29.94F
SLAYTON        SUNNY     53  38  58 SE3       29.95S
$$
MNZ065>067-074>077-082>085-091>093-272300-
   South Central Minnesota

CITY           SKY/WX    TMP DP  RH WIND       PRES   REMARKS
MANKATO        MOSUNNY   55  37  50 E5        29.95F
NEW ULM        SUNNY     55  36  47 CALM      29.94S
ST JAMES       MOSUNNY   54  39  58 CALM      29.96S
FAIRMONT       CLOUDY    50  41  71 NE6       29.95F
GLENCOE        SUNNY     57  37  47 NE5       29.94F
FARIBAULT      CLOUDY    52  41  66 NE5       29.96S
OWATONNA       CLOUDY    50  37  62 NE6       29.95S
WASECA         CLOUDY    52  39  62 CALM      29.96F
ALBERT LEA     CLOUDY    46  39  76 N6        29.95S
$$
MNZ078>079-086>088-094>096-272300-
   Southeast Minnesota

CITY           SKY/WX    TMP DP  RH WIND       PRES   REMARKS
ROCHESTER      CLOUDY    45  40  82 N8        29.95S
RED WING       CLOUDY    50  36  57 NE3       29.96S
STANTON        CLOUDY    50  38  63 CALM      29.95S
DODGE CENTER   CLOUDY    46  39  76 N6        29.95S
WINONA         CLOUDY    46  39  76 NW6       29.96S
AUSTIN         CLOUDY    46  39  76 N6        29.95S
PRESTON        CLOUDY    44  39  80 N5        29.94S
$$
ABBREVIATIONS USED IN REMARKS
   TC - TEMPERATURES IN CELSIUS
  WCI - WIND CHILL INDEX
   HX - HEAT INDEX
  VSB - VISIBILITY
$$




USA.gov is the U.S. government's official web portal to all federal, state and local government web resources and services.